GW0115 Weather Reports


Display with metric or nautical units.
time (UTC)temp
F
wind
direction
speed
MPH
gust
MPH
rain 1hr
in
rain 24hr
in
rain mn
in
humidity
%
barometer
mb
20260506044554 57 0 0.0 0.0 0.02 0.09 0.02 87 1008.6
20260506043057 58 0 0.0 0.0 0.02 0.09 0.02 85 1008.4
20260506041557 59 0 0.0 0.0 0.01 0.08 0.01 83 1007.9
20260506034603 61 0 0.0 0.0 0.00 0.07 0.07 75 1008.1
20260506033057 61 0 0.0 0.0 0.00 0.07 0.07 76 1007.8
20260506031604 62 0 0.0 0.0 0.00 0.07 0.07 75 1007.7
20260506024556 60 0 0.0 0.0 0.00 0.07 0.07 83 1007.4
20260506023056 59 0 0.0 0.0 0.00 0.07 0.07 85 1007.1
20260506021556 58 0 0.0 0.0 0.00 0.07 0.07 86 1006.7
20260506020057 58 0 0.0 0.0 0.00 0.07 0.07 80 1006.7
20260506014554 59 0 0.0 0.0 0.00 0.07 0.07 84 1006.6
20260506013051 58 0 0.0 0.0 0.00 0.07 0.07 87 1006.2
20260506011553 57 0 0.0 0.0 0.00 0.07 0.07 87 1006.2
20260506010057 57 0 0.0 0.0 0.00 0.07 0.07 85 1006.0
20260506004554 58 0 0.0 0.0 0.00 0.07 0.07 86 1005.5
20260506003049 56 0 0.0 0.0 0.00 0.07 0.07 86 1005.4
20260506001551 56 0 0.0 0.0 0.00 0.07 0.07 85 1005.4
20260506000055 56 0 0.0 0.0 0.00 0.07 0.07 83 1005.4
20260505234557 57 0 0.0 0.0 0.00 0.07 0.07 78 1005.2
20260505233053 59 0 0.0 0.0 0.00 0.07 0.07 77 1005.1
20260505231555 60 0 0.0 0.0 0.00 0.07 0.07 75 1005.1
20260505230050 63 0 0.0 8.0 0.00 0.07 0.07 72 1004.8
20260505224552 64 225 2.0 12.0 0.00 0.07 0.07 71 1004.9
20260505223053 65 0 2.0 11.0 0.00 0.07 0.07 71 1004.6
20260505221550 64 0 0.0 0.0 0.00 0.07 0.07 76 1004.4
20260505220053 64 0 0.0 10.0 0.01 0.07 0.07 72 1004.1
20260505214554 64 248 3.0 15.0 0.01 0.07 0.07 72 1004.6
20260505213050 63 0 0.0 0.0 0.01 0.07 0.07 80 1004.5
20260505211606 65 0 0.0 12.0 0.01 0.07 0.07 76 1004.8
20260505210054 62 0 0.0 7.0 0.00 0.06 0.06 79 1004.7
20260505204553 61 0 0.0 0.0 0.01 0.06 0.06 80 1003.5
20260505203052 63 0 0.0 7.0 0.02 0.06 0.06 79 1002.9
20260505201558 62 0 0.0 10.0 0.04 0.06 0.06 82 1002.8
20260505200053 63 217 1.0 15.0 0.06 0.06 0.06 80 1004.5
20260505194606 64 245 4.0 13.0 0.05 0.05 0.05 77 1004.2
20260505193057 64 0 0.0 8.0 0.04 0.04 0.04 74 1003.5
20260505191551 69 265 0.0 11.0 0.02 0.02 0.02 70 1003.7
20260505190050 74 194 7.0 15.0 0.00 0.00 0.00 48 1002.2
20260505184552 75 263 0.0 10.0 0.00 0.00 0.00 46 1002.0
20260505183055 77 243 2.0 11.0 0.00 0.00 0.00 44 1001.2
20260505181558 77 166 1.0 12.0 0.00 0.00 0.00 43 1001.3
20260505180054 77 239 2.0 14.0 0.00 0.00 0.00 43 1001.3
20260505174557 75 236 3.0 17.0 0.00 0.00 0.00 45 1001.3
20260505173052 76 234 5.0 15.0 0.00 0.00 0.00 44 1001.5
20260505171553 74 190 2.0 13.0 0.00 0.00 0.00 47 1001.9
20260505170055 75 209 3.0 11.0 0.00 0.00 0.00 46 1002.1
20260505164616 74 261 3.0 14.0 0.00 0.00 0.00 47 1002.4
20260505163101 73 218 0.0 6.0 0.00 0.00 0.00 49 1002.7
20260505161553 73 219 0.0 12.0 0.00 0.00 0.00 49 1003.2
20260505153053 71 163 5.0 16.0 0.00 0.00 0.00 51 1003.8
20260505151551 71 229 1.0 12.0 0.00 0.00 0.00 52 1004.3
20260505130110 62 0 0.0 4.0 0.00 0.00 0.00 65 1005.2
20260505124601 59 0 0.0 1.0 0.00 0.00 0.00 70 1005.2
20260505123054 58 0 0.0 2.0 0.00 0.00 0.00 71 1005.2
20260505121556 56 0 0.0 0.0 0.00 0.00 0.00 72 1005.2
20260505120108 55 0 0.0 1.0 0.00 0.00 0.00 73 1005.2
20260505114601 55 0 0.0 1.0 0.00 0.00 0.00 71 1005.3
20260505113105 55 0 0.0 1.0 0.00 0.00 0.00 71 1005.1
20260505111552 56 0 0.0 5.0 0.00 0.00 0.00 69 1005.3
20260505110106 56 0 0.0 3.0 0.00 0.00 0.00 69 1005.3
20260505101551 55 0 0.0 0.0 0.00 0.00 0.00 70 1005.2
20260505100052 55 0 0.0 0.0 0.00 0.00 0.00 70 1004.9
20260505094551 55 0 0.0 0.0 0.00 0.00 0.00 68 1005.0
20260505093057 56 0 0.0 3.0 0.00 0.00 0.00 68 1004.9
20260505091552 56 0 0.0 0.0 0.00 0.00 0.00 68 1004.9
20260505090054 56 0 0.0 3.0 0.00 0.00 0.00 67 1005.0
20260505084552 56 0 0.0 3.0 0.00 0.00 0.00 67 1005.1
20260505083051 56 0 0.0 3.0 0.00 0.00 0.00 66 1005.3
20260505081608 57 0 0.0 4.0 0.00 0.00 0.00 64 1005.4
20260505080055 57 0 0.0 2.0 0.00 0.00 0.00 64 1005.3
20260505074551 60 0 0.0 7.0 0.00 0.00 0.00 57 1005.2
20260505073051 62 267 1.0 15.0 0.00 0.00 0.00 53 1005.1
20260505071555 62 0 2.0 9.0 0.00 0.00 0.00 52 1005.1
20260505070055 62 235 3.0 12.0 0.00 0.00 0.00 51 1005.0
20260505064550 62 0 5.0 14.0 0.00 0.00 0.00 50 1005.2
20260505063053 62 0 1.0 13.0 0.00 0.00 0.00 51 1005.2
20260505061556 62 0 5.0 16.0 0.00 0.00 0.00 49 1005.2
20260505060051 63 187 6.0 18.0 0.00 0.00 0.00 49 1005.0
20260505054555 63 226 4.0 14.0 0.00 0.00 0.00 49 1005.2
20260505053101 62 215 4.0 12.0 0.00 0.00 0.00 50 1005.2
20260505051552 59 0 1.0 13.0 0.00 0.00 0.00 56 1005.3